RH
16 16 15 15 15 15 14 14 14 13 13 13 14 16 16 16 18 23 25 27 28 30 30 31 32 32 32 30 29 28 27 27 28 29 31 33 35 37 38 41 42 42 41 40 39 38 38 38 37 37 37 37 39 40 43 46 50 55 59 64 70 74 79 84 89 92 95 98 98 99 98 97 95 94 95 95 95 95 93 90 88 86 84 81 76 71
11 11 11 12 12 12 12 13 14 14 15 17 18 21 22 22 24 26 27 28 28 28 28 28 28 28 27 27 26 25 25 26 28 30 32 34 37 41 46 49 49 48 48 49 49 49 49 49 49 49 49 50 52 53 55 58 61 64 67 71 75 78 81 85 89 93 96 98 99 100 102 102 100 97 96 97 97 97 97 96 94 92 90 87 82 74
11 11 12 12 12 13 14 16 18 18 20 21 22 22 22 21 21 21 22 22 22 22 23 24 24 24 23 23 23 22 23 25 26 27 29 33 38 43 45 45 46 48 51 54 56 58 60 62 64 65 65 66 66 66 66 66 68 69 70 72 74 77 79 81 83 85 88 90 92 93 95 97 97 95 93 93 93 92 93 92 90 89 87 84 80 73
14 15 15 16 17 18 19 19 19 18 17 17 16 15 15 15 14 14 17 19 19 19 22 24 23 23 23 25 25 27 31 33 35 39 45 52 54 51 48 48 50 53 55 56 58 61 64 67 71 76 79 82 85 87 87 87 86 87 86 86 86 86 87 88 88 88 88 89 90 91 92 93 94 93 91 90 88 86 86 85 84 83 82 80 77 72
19 19 18 18 17 16 15 14 14 13 13 13 13 13 14 16 17 18 21 25 26 29 37 44 43 41 45 49 53 57 60 59 61 68 75 78 77 75 74 74 74 75 75 74 75 78 80 80 81 83 85 88 92 96 99 101 101 102 101 101 100 99 100 99 99 98 98 98 97 97 97 97 98 97 95 94 92 91 91 90 89 88 87 85 83 79
16 15 14 13 13 13 14 15 16 18 20 23 26 28 31 35 38 41 46 51 54 57 65 71 66 61 64 66 67 69 67 70 79 85 85 85 85 85 85 85 86 86 86 87 90 93 96 98 98 97 96 96 97 98 100 101 102 102 102 102 101 101 101 101 101 101 101 101 101 101 101 100 101 101 99 99 98 99 99 99 99 98 98 97 96 94
16 17 19 21 23 26 28 31 35 38 42 46 49 50 51 53 53 53 54 54 54 50 47 45 39 35 35 34 33 32 31 45 66 75 78 85 91 94 95 95 96 96 96 96 98 99 100 101 102 102 101 100 101 100 100 100 100 100 100 100 100 100 100 100 100 100 100 100 100 100 100 100 100 100 100 100 100 100 101 101 101 101 101 102 102 102
30 33 37 40 43 45 48 50 51 50 48 46 44 40 36 32 29 27 25 23 20 17 13 12 10 9 9 8 9 10 10 20 33 42 52 67 78 86 91 91 90 88 86 84 84 86 89 91 91 91 92 94 96 97 99 100 100 100 101 101 101 101 101 101 101 101 101 100 100 100 100 100 100 100 100 100 100 100 100 100 100 100 100 100 100 101
40 42 46 46 45 45 43 39 34 28 23 19 16 13 10 8 8 7 7 7 6 6 6 6 7 6 6 7 8 10 11 14 18 25 34 40 45 51 54 53 55 56 56 59 62 64 66 66 65 65 67 69 72 75 79 82 85 87 90 93 95 95 97 98 98 99 99 100 100 101 101 101 101 101 101 101 101 101 100 100 100 100 100 100 100 100
31 30 29 26 23 21 17 12 9 7 6 5 5 5 5 5 6 6 5 6 6 6 6 7 8 8 7 8 8 8 8 9 11 14 17 18 19 23 25 27 32 37 40 43 45 46 45 45 45 44 45 47 49 52 55 59 63 65 68 71 74 77 80 83 85 87 88 90 91 93 95 96 97 98 99 100 101 100 100 101 101 101 101 101 101 101
11 10 9 7 6 5 4 4 4 4 4 5 5 6 6 6 5 6 5 6 6 7 7 8 9 9 8 8 7 7 7 8 8 9 10 11 13 16 19 22 25 28 30 31 30 30 30 30 31 31 31 33 34 36 39 42 45 48 50 52 55 58 60 64 67 69 72 74 76 78 80 82 85 87 89 91 92 93 94 95 96 96 96 96 97 97
4 4 4 4 4 5 5 5 5 5 5 5 5 6 6 6 5 6 6 6 7 8 8 9 10 10 10 9 8 8 8 8 8 9 11 12 13 15 18 19 20 21 22 22 22 21 21 21 21 21 21 21 22 23 24 26 27 30 32 34 36 39 42 46 50 53 56 59 61 63 65 67 69 71 73 76 78 80 81 82 84 85 86 87 88 89
4 5 5 5 6 6 6 6 6 6 6 6 6 6 6 6 6 6 7 7 9 10 10 10 11 12 11 11 10 10 9 9 9 10 12 14 15 16 17 17 18 18 17 17 16 16 16 15 15 14 14 14 14 14 14 15 16 17 18 20 21 23 25 29 33 37 41 45 48 51 53 56 58 60 62 64 66 68 69 70 71 72 73 74 75 76
6 6 6 7 7 7 6 7 7 7 7 7 7 7 7 7 8 8 8 8 10 11 12 13 13 13 13 13 12 11 10 10 11 11 13 14 15 16 17 17 17 17 17 17 17 17 17 16 16 15 15 14 13 12 12 12 12 12 13 13 14 15 16 17 19 22 25 28 32 35 39 42 46 49 52 55 58 60 63 65 66 67 67 68 68 69
7 7 8 9 9 8 8 8 8 9 9 10 9 9 10 11 11 11 11 11 12 12 13 15 15 16 15 14 14 14 13 12 12 12 14 15 17 18 18 19 19 19 20 20 20 21 21 20 19 18 17 16 15 14 13 13 12 12 12 13 13 14 14 15 15 16 17 18 19 21 23 25 27 30 32 35 38 41 44 46 49 51 53 54 55 57
9 9 10 10 10 10 10 10 11 11 12 12 12 13 15 15 14 13 15 15 15 14 15 17 18 18 18 17 17 17 15 14 13 14 16 17 18 19 20 21 21 22 23 24 25 24 24 22 20 19 18 17 16 16 15 15 15 15 15 15 14 15 16 17 18 18 17 17 17 17 18 19 19 20 20 21 22 23 24 25 26 27 28 30 31 32
11 12 12 13 12 12 13 13 13 13 13 13 14 15 17 17 17 17 18 19 18 18 18 19 21 21 20 20 20 20 18 17 17 18 18 18 19 20 21 21 22 23 24 25 25 25 24 23 21 19 18 17 17 16 17 17 18 18 18 17 17 17 17 19 21 22 21 20 19 19 20 21 22 23 23 24 25 25 25 25 24 24 24 24 23 23
14 16 16 16 16 15 16 17 16 15 14 14 14 15 17 19 21 21 21 21 21 20 20 22 24 24 23 22 22 22 22 22 21 20 19 19 19 19 21 22 22 22 22 23 24 25 25 25 23 22 20 19 18 17 18 19 20 20 20 20 19 19 18 19 23 26 25 23 21 20 22 23 26 28 30 31 32 32 32 32 31 31 30 29 29 28
19 20 20 21 21 21 22 21 21 20 18 16 15 15 16 19 23 25 25 25 25 24 23 23 26 28 26 26 26 25 25 25 24 23 23 21 21 21 23 24 23 22 22 23 25 26 27 28 27 26 24 21 20 20 21 22 22 23 22 22 21 20 20 19 21 26 30 29 26 23 24 25 28 31 35 38 41 42 43 42 42 41 40 39 38 37
22 23 24 25 26 26 27 27 27 26 24 22 19 17 16 18 22 26 28 30 31 30 29 26 28 32 31 30 30 29 29 29 28 28 28 27 26 26 27 27 27 28 29 29 29 30 32 32 32 31 28 26 25 25 25 25 25 25 24 23 22 21 21 20 19 23 31 36 35 31 30 31 34 38 42 46 49 51 53 53 52 52 51 50 49 47
22 23 23 24 26 27 29 30 31 32 31 29 26 22 19 17 20 25 29 34 36 36 36 34 32 35 36 34 34 34 33 33 33 34 36 35 34 34 33 33 33 32 31 30 31 33 35 36 36 35 33 31 30 30 30 30 29 28 27 25 24 23 23 23 21 22 30 41 45 44 42 42 44 48 52 55 58 59 60 61 61 60 58 57 55 53
20 20 20 21 22 23 26 30 33 35 37 36 34 30 25 19 18 20 25 32 38 40 42 41 37 37 39 38 38 39 39 38 39 41 44 45 44 42 41 38 34 30 28 29 32 36 39 41 41 40 38 36 35 34 34 34 33 33 31 29 27 26 26 27 26 25 32 44 53 56 56 55 56 58 61 63 64 65 65 65 65 64 62 61 60 58
19 18 18 18 19 20 22 26 30 35 39 40 40 38 33 26 20 19 22 29 38 44 47 46 43 42 44 44 42 43 44 44 44 47 51 51 51 49 45 40 36 33 34 36 40 43 44 45 46 46 45 42 40 39 38 38 37 36 35 33 31 30 31 33 32 31 35 49 65 73 73 72 71 70 70 70 69 69 69 69 68 68 67 66 65 64
17 18 18 17 17 18 20 23 26 31 37 41 44 44 41 33 26 23 23 25 32 42 48 49 46 47 50 48 46 47 48 47 47 49 53 54 53 51 47 44 43 43 45 47 48 48 48 49 51 52 51 49 47 45 43 42 41 40 38 37 35 35 36 38 39 38 39 51 71 84 89 90 89 87 85 83 81 79 77 75 74 72 70 68 65 63
16 17 17 17 18 20 22 23 25 29 35 41 45 47 46 41 33 28 24 23 28 36 47 52 49 51 57 55 51 51 50 50 50 51 54 55 54 54 53 51 51 51 51 51 50 50 51 53 56 57 58 57 53 51 48 47 45 45 43 42 40 40 41 43 45 45 45 51 66 81 90 93 92 89 86 82 80 76 72 70 68 66 64 61 59 56
15 15 16 17 19 22 25 25 25 28 33 39 46 49 50 47 42 35 28 25 27 31 45 58 54 54 63 62 57 58 57 55 55 55 57 59 59 60 59 57 56 54 54 53 52 52 55 58 60 62 64 63 61 57 55 53 51 50 49 47 45 45 46 48 51 53 54 57 65 75 81 82 79 75 72 70 67 65 64 62 61 59 57 55 52 50
15 16 16 17 18 21 24 24 25 28 31 37 46 51 53 52 49 43 35 31 29 26 39 58 61 59 65 66 62 64 63 60 60 60 62 64 65 66 65 63 61 59 58 56 55 56 58 60 62 64 67 68 68 66 62 60 58 56 54 53 51 50 51 54 57 59 61 64 68 72 74 73 70 66 64 62 60 60 59 57 56 54 51 48 46 43
16 17 17 18 20 22 25 26 26 28 31 38 47 51 55 57 55 51 44 38 33 26 31 50 63 65 66 66 65 66 64 64 65 64 66 68 69 70 69 68 65 64 62 60 59 60 60 62 63 65 67 71 74 74 71 67 64 62 59 58 57 57 57 60 63 65 67 69 72 73 73 70 67 64 61 59 58 56 55 53 51 48 45 42 39 36
20 21 21 22 21 24 28 29 29 31 34 41 48 52 57 61 61 59 53 46 40 34 33 43 55 64 67 65 66 67 66 67 68 67 68 69 70 72 72 71 69 67 66 63 61 61 61 62 63 65 68 73 78 81 78 73 70 67 64 63 62 62 63 65 68 70 72 74 74 74 72 68 65 62 60 58 56 54 52 50 48 44 41 38 33 29
26 27 29 31 29 30 34 35 35 36 39 44 49 54 59 63 65 64 61 56 48 41 38 39 44 56 66 67 68 69 68 70 71 70 69 69 71 75 76 75 73 70 68 65 63 64 64 63 64 65 69 75 82 86 86 81 76 72 69 68 68 67 67 69 72 74 74 75 75 74 71 67 64 61 59 57 55 53 51 49 46 43 38 33 28 25
35 35 39 42 40 39 41 43 43 44 46 48 51 56 61 65 68 69 68 64 57 48 42 40 42 49 59 68 73 73 71 71 72 70 69 70 74 78 79 78 77 73 69 68 66 67 67 67 66 66 70 76 83 90 92 87 81 77 74 73 72 71 71 72 75 76 76 75 75 73 70 66 63 61 59 57 54 53 51 49 46 41 34 28 25 26
44 46 48 50 49 47 48 50 51 51 52 53 55 59 63 66 70 73 73 71 66 57 48 47 47 50 57 68 76 77 73 72 72 72 71 73 78 80 79 79 78 75 73 72 71 70 70 71 70 68 71 78 86 94 96 91 85 81 78 77 75 73 73 74 76 76 76 75 73 72 69 65 63 61 59 57 56 54 53 50 46 38 30 26 28 32
52 53 53 54 53 52 53 54 55 56 56 57 59 62 65 69 73 76 78 77 74 68 61 56 56 57 62 71 79 80 77 74 76 76 74 75 79 80 79 79 79 79 79 78 76 74 72 74 74 71 74 82 90 97 100 95 89 85 83 81 78 75 74 76 77 77 76 74 71 69 67 65 63 62 60 59 58 56 55 52 44 34 28 29 33 39
54 55 56 57 56 55 57 58 59 61 62 62 63 65 67 72 75 76 81 84 80 76 73 69 66 65 67 73 80 82 78 75 78 80 78 79 81 79 79 82 83 83 82 81 81 81 79 78 77 76 80 88 95 100 101 98 92 88 87 84 80 77 77 79 80 78 75 73 70 68 66 64 63 62 61 61 59 59 59 52 41 32 29 34 40 43
53 54 56 58 59 58 59 61 61 63 67 68 67 68 70 75 77 75 81 89 86 83 82 78 73 72 72 72 76 80 79 77 83 86 82 81 83 80 81 84 83 80 79 80 85 88 88 85 83 84 89 95 100 104 103 98 93 89 89 85 79 78 80 82 81 78 75 73 70 69 67 65 65 64 64 63 63 63 62 51 38 32 33 39 44 45
50 52 55 57 60 61 62 65 65 66 70 72 71 72 73 76 78 75 78 89 90 86 86 83 78 76 73 71 74 81 83 82 86 89 84 81 83 81 80 81 77 74 76 80 87 92 93 93 91 92 96 100 104 105 101 95 90 89 88 84 79 79 81 83 82 78 76 74 72 72 70 68 67 67 67 67 66 67 63 50 37 34 36 43 47 45
46 47 50 54 60 63 62 65 67 66 70 73 71 73 75 76 78 74 73 82 89 89 89 90 85 80 76 75 79 85 86 82 83 85 81 79 80 77 76 77 73 69 69 73 80 87 91 95 96 97 100 103 104 102 95 89 86 86 86 82 78 79 82 82 82 79 78 77 77 77 75 73 72 72 71 71 70 70 64 49 37 36 40 46 48 45
41 42 47 52 59 64 65 67 67 64 68 74 74 76 78 78 79 75 70 78 88 90 90 91 89 84 81 82 85 88 86 80 78 78 76 76 76 74 73 72 64 58 58 63 71 81 89 95 98 99 101 103 100 92 84 81 82 82 81 78 76 79 81 81 81 81 81 81 82 83 81 80 79 77 76 75 74 73 64 48 38 39 43 48 49 45
38 39 44 49 57 65 69 75 76 71 73 79 80 82 83 82 81 77 72 76 83 84 85 88 90 89 88 87 88 89 86 80 77 77 76 76 77 75 73 69 59 52 53 59 68 78 86 91 94 95 96 95 89 78 71 73 76 76 74 73 73 78 80 80 81 83 84 86 88 89 88 86 84 82 80 79 78 76 66 49 40 41 45 51 51 45
40 41 42 45 52 59 66 75 78 74 78 84 84 85 86 84 84 83 79 79 81 82 86 90 93 93 93 90 88 90 92 89 85 83 81 80 80 78 75 72 63 55 55 59 66 74 80 84 86 87 87 83 72 62 59 62 66 68 67 68 72 77 80 81 84 87 89 92 94 95 94 92 89 87 84 81 81 80 68 51 43 45 48 54 54 47
43 44 43 44 47 51 60 72 70 66 78 88 87 89 90 87 88 90 89 88 89 89 93 96 98 96 94 94 93 94 98 99 95 93 89 87 87 84 82 79 69 59 57 61 65 70 74 77 79 78 76 68 56 49 49 53 57 61 63 65 71 78 82 85 89 93 96 100 102 101 100 98 94 90 86 83 84 82 70 54 47 48 50 55 56 49
47 47 44 45 46 47 57 67 59 57 75 89 87 89 92 91 90 91 92 95 97 97 98 101 103 100 95 96 98 99 102 103 101 99 97 94 93 92 89 84 72 60 57 60 64 67 69 71 72 71 65 54 45 42 44 47 52 56 58 60 67 75 82 88 94 99 104 106 105 102 102 102 98 93 88 86 87 85 73 57 50 51 52 56 58 52
51 50 46 47 48 47 57 66 58 57 77 91 93 94 95 94 94 93 95 100 101 101 101 103 105 102 98 98 101 101 103 105 104 102 100 98 97 95 92 86 73 61 58 60 62 64 65 67 68 65 56 46 40 39 41 43 47 51 53 57 63 72 83 92 99 104 107 107 104 102 101 101 100 96 92 89 90 88 76 59 53 54 55 57 60 56
55 54 50 50 50 48 60 70 64 62 78 90 96 102 102 100 101 100 100 103 102 102 103 103 104 103 101 101 102 102 103 105 105 103 101 99 98 96 93 86 73 61 59 61 62 62 63 64 65 59 49 40 37 36 37 40 44 48 52 55 61 72 85 96 103 108 108 105 102 101 100 101 101 100 95 93 94 91 77 61 56 59 59 59 62 59
59 58 54 53 53 51 59 67 59 59 77 87 88 95 101 103 104 103 102 103 103 104 105 105 105 103 101 101 101 101 102 104 105 104 102 100 98 97 94 86 73 63 62 63 62 61 60 62 62 55 45 38 35 34 35 37 41 47 53 56 61 73 87 99 107 110 107 103 101 100 100 101 103 102 98 97 98 92 77 64 60 62 62 61 62 62
61 62 57 56 56 53 56 60 53 54 73 84 81 85 96 102 103 103 102 102 103 103 103 104 104 102 101 100 100 100 101 103 104 105 104 101 98 97 95 87 73 64 64 65 63 59 59 61 60 53 44 38 36 34 34 36 39 45 53 58 65 76 90 102 109 109 105 101 101 101 100 101 104 104 101 102 104 95 78 65 61 62 63 62 62 64
63 64 61 58 58 55 55 57 53 50 62 73 74 79 93 100 101 101 100 99 99 101 102 102 102 101 101 101 100 100 102 103 105 106 105 102 99 98 96 87 73 65 66 67 63 59 58 61 60 54 46 41 39 37 36 36 39 44 52 60 69 79 93 104 109 108 104 101 100 101 101 102 104 104 103 106 106 95 80 69 65 64 65 64 63 66
66 67 64 60 61 59 56 57 55 53 58 65 68 75 88 95 96 98 99 98 97 100 101 102 102 101 100 101 100 100 101 103 105 106 104 102 99 98 96 86 70 64 66 68 64 60 59 61 61 56 49 45 43 43 41 40 41 45 51 61 70 81 94 104 108 108 106 103 100 100 102 103 103 103 104 107 103 90 78 72 69 68 69 68 66 67
69 71 69 65 63 61 59 58 57 55 57 60 62 69 80 87 92 97 100 98 98 100 100 101 103 102 100 100 100 99 100 103 105 105 103 101 98 97 96 84 66 61 66 68 65 61 59 62 63 60 55 51 49 50 49 45 44 46 51 60 70 81 94 105 109 108 105 102 100 101 103 104 104 103 103 101 93 84 78 76 71 68 71 74 72 69
69 73 73 71 67 64 62 61 60 59 58 57 59 65 74 83 93 100 102 100 100 101 100 100 102 101 100 100 100 100 100 101 103 104 103 101 98 98 97 83 64 59 65 69 66 62 61 63 66 65 62 58 55 56 56 52 49 48 51 59 69 80 91 102 108 107 104 102 102 103 103 104 104 104 99 89 79 75 78 82 80 74 72 76 78 76
64 71 74 75 72 69 66 64 64 63 62 60 60 64 70 80 92 100 102 101 101 101 101 101 101 100 100 100 100 101 101 100 101 101 101 101 100 99 97 83 63 57 66 71 68 64 64 66 68 69 69 66 63 63 63 60 56 53 53 59 68 78 87 96 103 106 106 105 106 105 103 101 100 97 90 77 68 67 72 79 86 88 86 85 84 82
Wind_Speed
27 28 28 30 31 31 32 33 34 35 35 36 36 37 38 39 39 40 41 42 43 44 46 47 48 49 50 51 52 53 53 53 54 54 54 55 55 56 56 56 55 56 57 58 58 58 59 59 60 60 60 60 61 61 61 62 62 62 62 63 63 64 64 65 65 66 66 67 68 69 70 71 72 72 73 73 74 75 76 77 78 79 80 80 81 81
29 30 30 31 32 32 33 34 35 36 37 37 38 39 40 41 41 42 44 44 45 46 47 48 49 50 51 51 52 52 52 52 52 52 52 53 53 54 54 54 55 56 57 58 58 58 59 59 59 60 60 60 60 61 61 61 61 61 62 62 62 63 64 64 65 66 66 67 68 69 70 71 72 73 73 74 75 76 76 77 78 79 80 81 82 82
31 32 32 33 34 34 35 36 37 38 38 39 40 41 41 42 42 42 42 43 44 44 45 45 46 47 48 48 49 50 49 49 49 49 49 49 49 50 51 52 53 54 55 56 56 57 57 58 58 58 59 59 59 60 60 61 61 61 62 62 63 64 64 65 66 67 67 68 69 70 70 71 72 73 74 75 76 77 78 78 79 80 81 81 82 83
32 33 34 35 35 36 37 38 38 39 39 39 38 38 38 38 39 38 38 39 39 40 41 42 43 44 45 45 46 47 46 47 47 47 46 46 46 48 49 50 50 51 52 53 53 54 55 55 56 56 57 57 57 58 58 59 60 60 61 62 63 63 64 65 66 67 68 69 70 70 71 72 73 74 75 76 77 78 79 80 80 81 82 83 84 84
34 35 36 36 36 36 36 35 34 34 34 34 34 34 34 34 35 35 35 36 37 38 39 40 42 43 43 44 44 45 46 46 46 45 43 43 45 46 47 47 48 50 51 52 53 53 54 55 55 56 56 57 57 58 58 59 60 60 61 61 62 63 64 64 65 66 67 69 70 71 72 73 74 75 76 77 78 79 79 80 81 82 83 83 84 85
34 34 34 34 33 32 32 31 31 31 31 31 31 32 32 32 33 33 34 35 37 37 37 39 41 42 42 43 43 44 45 45 43 42 43 44 46 47 48 49 51 52 52 52 52 53 53 54 54 55 55 56 56 57 57 58 58 59 60 61 62 62 63 64 65 66 67 68 69 70 71 72 73 74 75 76 77 77 78 79 80 81 82 82 83 84
31 30 30 30 30 30 30 30 30 30 30 30 30 30 31 31 32 32 33 33 33 33 33 35 37 39 40 41 42 42 42 42 42 44 45 47 48 49 50 50 51 51 51 51 51 51 51 52 52 52 53 53 54 54 55 55 56 57 58 59 60 61 62 62 63 64 64 65 66 67 68 69 70 71 72 73 74 75 75 76 77 78 79 80 81 82
29 28 28 27 27 27 28 28 28 28 28 28 28 28 28 28 28 28 28 28 28 28 29 31 34 37 38 39 39 39 40 41 42 44 45 45 46 47 47 48 48 48 49 49 49 50 50 50 51 51 52 52 53 54 55 55 56 57 57 58 59 60 61 61 62 63 63 64 64 65 66 67 68 69 70 71 72 73 73 74 75 76 77 78 79 80
27 26 25 25 26 26 25 25 25 25 25 24 24 24 24 23 23 23 23 25 25 26 29 32 35 38 38 38 37 38 39 40 41 43 44 45 46 46 47 47 48 48 49 49 49 50 50 51 52 52 53 53 54 55 56 57 58 59 59 60 61 61 62 63 64 64 65 66 66 67 67 68 68 69 70 71 71 72 73 73 74 75 76 77 78 78
24 24 23 22 22 22 21 21 21 21 21 21 21 21 21 21 21 22 23 24 25 27 31 34 36 38 38 38 38 39 40 41 42 43 44 45 46 46 46 47 47 48 49 50 51 52 53 54 55 55 56 56 57 57 58 59 60 61 62 62 63 64 64 65 66 67 68 68 69 69 70 70 71 72 72 73 74 75 75 75 76 77 77 78 79 79
20 20 19 19 18 19 20 20 20 20 19 19 19 19 20 21 21 22 23 24 27 29 32 34 36 38 39 39 41 42 43 43 44 44 44 45 45 46 46 47 47 48 49 50 51 52 54 55 56 57 57 58 59 59 60 61 62 63 64 65 66 67 67 68 69 69 70 71 72 72 73 73 74 74 75 76 77 77 78 78 79 80 80 81 81 82
19 19 18 19 20 21 21 20 20 20 20 20 19 19 20 21 22 23 24 26 28 30 33 34 36 38 40 42 43 44 44 45 45 45 45 45 45 46 46 47 48 48 49 50 51 52 53 55 56 57 58 59 60 61 62 63 64 66 67 68 68 69 70 71 71 72 73 74 75 76 76 77 77 78 78 79 80 80 81 81 82 82 83 83 84 84
20 19 20 21 20 20 20 20 20 20 21 21 21 21 22 23 24 25 27 28 30 31 33 35 36 38 41 42 44 44 44 45 45 45 45 45 45 45 46 47 47 48 49 50 51 52 53 54 56 57 58 59 60 61 62 63 65 67 68 69 70 71 72 72 73 74 75 76 77 78 78 79 80 80 81 81 82 83 83 84 85 85 86 86 86 87
21 21 22 22 20 20 21 22 22 23 24 25 25 26 27 28 29 30 30 31 31 32 33 35 36 38 40 42 43 44 45 45 45 45 45 45 45 45 45 46 46 47 48 49 50 51 52 53 55 55 56 57 59 60 61 62 63 65 67 69 70 71 72 73 74 75 76 77 78 79 80 80 81 81 82 83 83 84 84 85 86 86 87 87 88 88
22 22 23 22 23 23 24 25 26 27 27 28 29 30 31 31 31 32 32 33 33 33 34 35 36 38 40 42 43 44 45 45 44 44 44 45 45 45 45 45 46 47 48 49 50 51 53 54 55 55 55 56 57 58 59 60 61 62 64 66 67 69 70 71 72 74 75 76 77 79 79 80 81 82 83 83 84 85 85 86 86 87 88 88 89 89
23 23 24 24 24 25 25 26 27 27 27 28 30 31 31 31 32 33 33 34 35 35 35 36 36 38 40 42 43 45 45 45 45 44 44 45 45 46 46 46 47 47 48 49 50 51 53 54 55 55 55 56 56 57 57 58 59 60 61 63 64 65 67 68 69 70 72 73 74 76 77 78 79 80 81 82 83 84 85 85 86 87 88 88 89 90
24 24 25 25 25 25 26 26 26 26 27 27 28 29 30 31 33 34 34 34 35 36 36 36 36 38 40 41 43 45 46 46 46 46 45 45 45 45 46 47 47 47 47 48 49 51 53 54 55 55 56 56 56 56 57 57 58 59 60 61 62 63 64 65 66 68 69 70 71 72 73 74 75 76 77 78 79 79 80 81 82 83 84 85 86 87
26 25 25 26 26 26 26 26 26 27 28 28 28 29 31 32 33 34 35 36 36 37 38 37 36 38 40 41 42 45 46 47 47 47 46 46 46 46 46 46 47 47 47 48 50 52 54 55 56 56 57 57 57 57 57 58 59 60 60 61 62 62 63 64 65 66 66 67 68 69 70 71 71 72 73 74 75 75 76 77 78 79 79 80 81 82
27 27 27 27 27 27 27 26 26 27 29 29 30 30 31 32 32 33 34 36 37 38 39 39 37 38 40 42 43 45 46 47 48 48 48 48 47 47 47 48 48 49 49 50 51 53 55 56 57 58 59 58 58 58 58 59 60 60 61 61 62 62 63 63 64 64 65 65 66 66 67 68 68 69 69 70 71 72 72 73 74 74 75 75 76 77
28 28 29 29 29 29 29 28 28 28 29 30 30 30 31 31 31 32 34 35 37 39 41 41 39 38 41 43 44 45 47 48 50 50 50 50 50 50 50 50 51 51 52 52 53 55 56 57 59 60 60 60 59 59 59 60 60 61 61 62 62 63 63 63 63 63 64 64 64 65 65 65 66 66 67 67 68 68 69 70 70 71 71 72 73 74
29 30 31 32 32 32 31 31 30 30 30 31 31 30 31 32 33 33 35 35 37 39 41 43 42 39 41 44 45 46 48 49 51 52 52 53 53 53 53 52 53 53 53 53 54 56 57 59 60 61 61 61 60 60 60 60 60 61 62 62 63 63 63 63 62 62 62 63 63 63 63 64 64 64 65 66 66 67 67 68 69 69 70 71 71 72
31 32 33 33 34 34 34 34 33 33 32 32 33 33 32 32 33 34 35 35 36 38 40 43 43 41 42 45 46 46 48 50 51 53 53 54 55 55 54 54 54 54 54 54 55 57 58 59 60 61 62 62 61 61 60 61 61 61 62 63 64 64 63 62 61 61 61 61 61 62 62 62 63 63 64 65 65 66 67 67 68 68 69 69 70 71
33 33 34 35 36 36 36 36 36 36 35 34 34 35 34 34 34 35 36 36 36 37 39 42 43 42 43 45 46 47 48 50 52 53 53 54 55 56 55 55 55 55 55 55 56 57 58 59 60 61 61 62 61 61 61 61 61 62 63 64 65 65 63 62 61 61 60 60 60 60 60 61 61 62 63 63 64 65 65 66 66 67 68 68 69 70
35 35 36 37 37 37 38 38 38 38 38 36 35 37 36 36 36 36 38 38 38 38 39 42 43 42 43 46 47 47 48 50 52 52 53 55 56 57 57 57 57 56 56 56 56 57 58 59 60 61 62 62 62 61 61 61 61 62 63 65 66 66 64 63 61 60 60 60 60 60 60 60 60 61 61 62 63 63 64 65 66 66 67 68 68 69
37 38 39 39 40 40 39 40 40 39 39 38 37 37 37 37 37 38 39 40 40 39 40 42 44 43 43 46 47 47 48 50 51 52 53 56 57 58 59 59 58 57 56 56 57 58 58 59 60 61 62 63 62 62 62 62 62 62 63 65 66 66 65 64 62 60 59 59 59 59 60 60 60 61 61 62 62 63 63 64 65 65 66 67 68 69
38 39 40 41 42 42 42 42 41 41 41 40 39 38 38 37 38 38 39 40 41 41 40 42 45 43 42 45 46 46 47 49 50 52 53 55 57 58 59 59 59 58 57 57 58 59 59 60 61 62 62 63 63 63 62 62 63 63 64 65 67 67 66 65 63 61 59 58 58 58 59 59 60 60 61 62 62 62 63 63 63 64 65 66 67 67
39 39 40 41 42 43 43 42 41 41 40 40 40 39 38 38 38 38 39 40 41 42 40 41 44 44 42 44 46 45 46 48 49 51 52 54 56 57 58 58 58 58 57 58 58 59 60 60 61 62 63 64 64 64 63 63 64 64 64 66 68 68 67 65 63 61 60 59 58 57 58 58 59 59 59 60 60 60 61 61 62 63 64 65 66 67
40 40 40 41 42 43 43 42 41 40 40 40 40 40 39 39 38 38 39 41 42 43 41 40 42 44 44 45 46 46 47 48 49 51 52 53 55 56 57 58 58 58 58 58 58 59 59 60 61 63 64 65 65 65 65 65 65 65 65 67 68 69 68 66 64 62 60 59 58 57 57 57 57 57 58 58 58 58 59 60 61 62 63 64 66 67
41 41 42 41 41 42 43 42 41 40 40 41 41 40 40 39 39 38 39 41 43 43 42 41 42 44 46 47 47 47 48 48 49 50 52 53 55 56 57 58 59 59 58 58 59 59 60 60 62 63 64 65 66 66 66 66 66 66 66 68 70 70 69 66 64 62 60 58 57 57 56 56 56 56 57 57 57 58 58 59 60 62 63 64 65 66
42 43 43 43 42 42 43 43 41 41 41 41 41 41 40 40 40 40 40 41 43 43 42 43 43 44 46 47 48 48 48 49 49 51 52 54 55 57 58 59 59 59 59 59 59 60 60 61 62 63 65 66 66 67 67 67 67 67 67 69 71 71 69 67 64 62 60 58 57 56 56 56 56 56 56 56 57 57 58 59 61 62 63 63 63 63
43 43 44 44 42 43 44 43 42 42 41 41 41 41 41 41 41 41 39 41 44 44 43 44 45 45 46 48 48 49 49 49 50 51 53 54 55 57 58 59 60 60 60 59 60 60 61 61 62 64 65 66 67 68 68 68 68 68 69 70 71 71 70 67 64 62 60 58 57 56 56 56 56 56 56 56 57 57 58 60 61 62 62 61 60 59
44 44 44 44 43 43 44 44 43 43 42 41 42 42 42 42 42 41 39 41 44 45 45 46 47 47 47 48 49 49 50 51 51 52 54 54 55 56 58 59 60 60 60 60 60 61 61 62 63 64 65 66 67 68 68 69 69 69 70 71 72 72 70 67 64 62 60 58 57 56 56 56 57 57 57 57 57 58 59 60 61 61 60 58 57 56
44 44 45 45 43 42 43 43 43 43 42 42 43 44 43 43 43 41 40 41 45 46 45 46 47 48 48 49 49 50 51 51 52 53 54 55 55 56 58 59 60 60 60 60 60 61 61 62 63 64 65 66 67 68 68 69 69 69 70 72 72 72 70 67 64 62 59 58 57 57 57 57 57 58 58 58 58 59 60 60 60 60 58 55 55 56
44 44 45 45 44 42 43 43 43 42 42 43 44 44 44 44 44 43 41 41 45 45 45 46 47 48 48 49 49 50 50 51 52 53 55 55 56 57 59 59 60 60 59 60 60 61 61 62 63 64 65 66 67 67 68 68 69 69 71 72 73 71 69 66 63 61 59 58 57 57 57 58 58 58 58 58 59 59 60 60 60 59 56 53 54 55
44 45 45 45 45 43 43 43 43 42 42 43 44 45 45 45 47 46 42 41 44 46 45 46 47 48 49 49 50 51 51 51 51 52 54 55 56 58 59 60 60 60 60 60 60 61 61 62 63 64 64 65 66 67 68 68 69 70 71 73 72 70 68 65 62 60 58 57 57 57 58 58 58 59 58 58 59 59 59 59 59 56 53 52 53 54
45 45 45 45 45 45 44 44 44 42 41 42 44 45 46 47 48 48 44 41 44 47 46 47 48 48 49 50 50 51 52 52 51 52 55 56 56 58 60 61 61 61 60 61 61 61 61 61 62 63 64 65 65 66 67 68 69 70 72 73 72 69 67 64 61 60 58 57 57 57 58 58 58 58 58 58 58 58 58 58 57 54 51 50 52 52
44 45 46 46 46 46 46 45 44 44 42 43 45 46 47 48 48 50 47 44 45 47 47 48 49 49 50 51 51 52 52 52 52 52 54 56 57 59 61 62 62 61 61 61 61 61 61 62 63 63 64 65 65 66 67 68 70 71 72 72 71 68 66 63 61 59 58 57 57 58 58 58 58 58 58 57 57 57 57 56 54 51 49 49 50 50
44 45 46 46 46 47 47 46 46 46 45 45 46 47 48 48 49 50 50 47 46 48 48 48 50 50 51 52 52 52 53 53 53 53 54 56 57 60 62 63 62 61 61 61 62 62 62 62 63 63 64 64 65 66 67 69 71 72 72 71 70 67 65 63 61 60 58 58 58 58 59 59 58 58 57 57 56 56 56 55 52 49 48 48 49 48
46 46 46 46 47 48 48 47 47 47 47 46 47 48 49 49 50 51 52 49 48 49 49 49 50 51 52 52 53 53 54 55 55 55 55 56 58 60 63 64 63 62 62 62 62 62 62 63 63 63 64 64 65 66 68 70 72 72 71 70 68 66 64 63 61 60 59 59 59 59 59 59 58 58 57 56 56 55 55 54 51 48 47 47 48 47
47 47 46 47 47 48 49 48 47 47 47 48 48 49 49 50 50 52 52 51 50 51 50 50 51 51 52 53 54 54 55 56 57 57 56 57 59 61 63 65 64 63 62 63 63 63 63 63 63 63 63 64 64 66 69 71 71 71 70 69 67 65 64 63 62 60 60 59 59 59 59 59 58 57 57 56 55 54 54 53 50 47 46 46 47 45
48 47 47 47 47 48 48 49 48 47 47 48 49 49 50 50 50 51 52 52 52 51 51 51 51 52 52 53 54 55 55 57 58 58 58 58 60 62 64 65 64 63 63 63 63 63 63 62 62 62 62 63 65 67 70 71 71 71 69 68 66 65 64 63 62 61 60 59 59 59 59 58 58 57 56 55 54 54 54 53 50 46 44 44 45 44
48 48 48 47 48 48 48 49 50 49 48 48 49 49 49 50 50 51 52 52 51 52 51 51 52 53 53 54 55 55 56 56 58 58 59 59 60 62 64 65 64 63 63 63 64 63 63 62 62 62 62 64 66 69 70 70 70 70 69 67 66 64 64 63 63 62 60 59 59 58 58 57 57 56 55 55 54 53 53 52 50 47 44 43 44 43
48 49 49 48 48 49 48 48 51 51 49 48 49 50 50 50 51 52 52 51 51 51 51 51 52 53 54 54 55 56 56 57 58 58 59 59 60 61 63 65 65 64 63 63 64 64 63 62 62 61 62 65 67 69 70 70 70 69 68 67 66 65 64 64 63 62 61 59 59 58 57 57 56 56 55 54 53 53 53 51 49 47 44 43 43 42
48 49 50 49 49 49 48 48 51 52 50 49 50 50 51 51 51 52 52 51 51 51 52 52 52 53 54 54 55 55 56 57 57 58 59 59 59 61 63 65 65 64 63 64 64 64 63 62 61 61 63 65 67 69 69 70 70 69 69 68 66 65 65 64 63 62 61 59 58 57 56 56 56 55 54 54 53 53 53 51 49 47 45 43 42 41
49 49 51 50 49 49 48 48 51 51 50 50 51 51 51 51 52 52 52 52 51 51 52 52 52 53 54 54 55 55 56 57 57 58 59 59 59 61 63 65 65 64 63 64 64 64 63 62 61 61 63 66 67 68 69 70 70 70 69 69 67 66 65 64 63 62 61 59 58 57 55 55 55 55 54 54 53 54 53 51 49 47 45 43 42 41
51 51 52 51 51 50 48 49 51 51 50 51 52 52 52 52 52 53 53 52 52 52 52 52 52 53 53 54 55 55 56 57 57 58 59 59 59 61 63 65 65 64 63 64 64 64 63 62 61 61 63 66 67 68 69 70 71 71 70 69 68 66 65 64 63 62 60 58 57 56 55 54 54 54 53 53 54 54 53 51 49 47 44 42 41 41
52 52 53 53 52 52 51 51 52 51 50 51 52 53 52 53 53 54 54 53 53 52 52 52 52 52 53 54 54 55 56 57 57 58 58 59 59 60 63 65 65 64 63 64 65 65 64 62 61 62 63 65 67 68 70 71 71 72 71 70 69 67 65 64 62 61 60 58 56 55 54 53 52 52 52 52 53 53 53 51 49 47 45 42 41 40
54 54 55 54 53 53 53 53 53 52 50 51 53 53 53 53 54 54 54 54 54 53 52 52 52 53 53 53 54 55 55 56 57 57 58 58 59 60 63 65 65 64 63 64 65 65 64 63 62 62 63 65 67 69 70 71 72 73 72 71 69 67 65 63 62 60 59 57 55 53 53 52 51 51 51 51 52 52 51 50 48 46 45 44 41 40
55 55 56 56 55 54 55 55 55 53 52 52 53 53 53 54 54 54 55 55 54 53 53 52 52 53 53 53 54 55 55 56 57 57 58 58 58 60 62 64 65 64 63 64 64 65 64 63 62 62 64 65 67 69 70 72 73 73 73 72 70 68 66 63 61 60 58 56 54 53 52 51 51 51 51 51 51 50 50 49 48 45 44 44 43 41
57 57 58 58 57 56 56 56 56 56 54 54 54 54 54 55 55 55 55 55 55 54 53 53 53 53 53 53 54 55 55 56 56 57 57 57 58 59 62 64 65 64 63 63 64 64 64 63 63 63 64 66 67 69 70 72 73 74 74 73 71 69 66 63 61 59 57 55 53 52 51 51 51 51 51 51 49 48 47 48 48 46 43 42 42 43
57 58 59 60 59 58 58 58 58 57 57 56 55 55 55 56 56 56 56 56 55 54 53 53 53 53 53 53 54 55 55 55 56 56 57 57 57 59 62 64 64 64 63 63 64 64 64 63 63 63 65 66 68 69 71 72 73 74 74 74 72 69 67 64 61 58 56 54 52 51 51 50 50 50 51 50 49 47 44 43 45 47 46 44 42 41
Wind_Direction
293 292 291 290 290 291 292 292 291 290 290 290 291 291 291 291 292 292 293 292 292 291 290 290 289 289 288 288 288 288 288 287 286 286 286 286 285 285 284 284 282 282 281 280 280 279 278 278 277 276 276 275 274 274 273 272 271 271 270 270 269 269 268 268 268 267 267 267 267 267 267 267 267 267 267 267 267 267 268 267 267 267 267 267 267 267
292 292 292 291 291 292 292 292 292 293 294 294 294 294 294 294 293 293 292 291 290 290 289 289 288 288 288 289 289 289 288 288 288 288 288 287 287 286 285 284 284 283 282 282 281 280 280 279 278 278 277 276 276 275 274 273 273 272 271 270 269 269 268 268 267 267 266 266 266 266 266 266 266 266 266 266 266 266 266 266 266 266 266 266 266 266
295 295 295 295 295 295 295 295 295 295 296 296 295 295 294 293 292 292 291 291 290 290 291 290 289 289 290 291 291 291 291 291 291 291 290 290 289 288 286 285 285 284 283 282 282 281 281 280 279 279 278 277 277 276 275 274 273 273 272 270 270 269 268 267 267 266 266 266 265 265 265 265 265 265 265 264 264 264 265 264 264 264 264 264 265 265
298 298 297 298 298 298 298 298 298 298 297 296 296 295 295 294 294 293 294 294 293 294 294 294 293 293 294 294 294 295 295 295 294 293 293 292 290 289 287 287 286 285 284 284 283 283 282 281 281 280 280 279 279 278 278 277 276 275 274 273 272 271 270 269 268 268 267 266 266 266 265 265 264 264 264 264 264 264 264 264 264 264 264 264 264 264
300 300 300 300 300 300 300 299 299 298 298 298 297 298 298 299 299 299 299 299 299 300 300 300 298 298 299 299 299 299 298 297 296 296 296 294 291 290 288 288 288 288 287 287 286 286 285 284 283 282 281 281 280 280 279 279 278 277 277 276 275 274 273 272 271 270 270 269 268 268 267 267 266 266 265 265 265 264 264 264 264 264 264 264 264 264
303 303 303 302 302 301 300 300 299 300 301 302 302 303 303 304 304 304 305 305 305 305 305 304 303 302 302 302 301 299 299 300 301 301 299 296 294 293 293 292 293 293 292 291 290 289 288 287 286 285 284 283 283 282 281 280 280 279 278 277 276 276 275 274 274 273 273 272 271 271 270 269 269 268 268 268 267 266 266 266 266 266 265 265 265 265
306 305 305 305 305 305 305 306 307 307 308 309 309 309 309 309 309 310 311 311 311 312 311 310 310 309 307 306 306 305 306 305 304 302 300 299 298 297 296 296 296 296 295 294 293 293 292 291 290 289 288 287 286 286 285 284 283 282 281 280 279 278 277 276 275 275 274 274 273 273 272 271 270 270 270 269 269 268 268 268 268 267 267 267 266 266
310 311 312 312 312 313 313 313 313 313 314 314 315 316 317 319 320 322 321 320 321 322 321 322 323 322 321 321 319 316 312 308 304 301 300 300 298 297 297 297 297 297 297 297 296 296 295 294 293 292 291 291 290 289 288 286 285 284 284 283 282 281 280 279 278 277 276 275 275 274 273 273 272 272 271 271 271 270 270 269 269 269 269 269 268 268
316 317 317 317 318 318 318 319 320 322 325 327 330 332 332 334 334 334 332 332 333 333 334 336 337 335 335 334 330 324 317 311 307 304 302 300 299 298 298 299 299 299 299 299 299 298 297 297 296 295 294 293 292 291 290 288 287 286 285 285 284 283 282 281 280 279 278 277 276 275 274 274 273 272 272 272 271 271 271 270 270 270 270 270 270 270
321 322 323 326 328 330 332 336 340 343 343 343 346 343 339 339 338 337 338 339 340 341 342 344 343 342 341 338 335 330 325 320 315 310 306 304 303 303 302 303 302 302 301 300 300 299 298 298 297 296 295 294 293 292 291 290 289 288 286 285 285 284 283 282 282 281 280 279 278 277 276 276 275 274 274 273 272 272 271 271 271 270 270 270 270 270
341 344 346 347 349 351 352 352 352 350 346 345 346 342 337 338 339 340 340 341 342 344 345 345 344 343 342 340 338 335 332 329 324 320 316 313 310 309 308 307 306 305 303 302 301 301 300 299 298 297 296 295 294 293 292 291 290 289 288 286 285 285 284 283 282 281 281 280 279 278 278 277 276 276 275 275 274 274 273 272 272 272 271 271 271 270
6 4 2 1 360 359 356 354 353 350 348 347 347 342 338 338 340 340 339 340 342 344 342 342 343 343 342 341 340 339 337 333 330 326 322 319 316 313 312 310 309 308 307 306 306 305 304 302 301 300 299 298 296 295 294 293 292 291 289 288 287 286 285 284 283 282 281 281 280 279 278 277 277 276 275 275 275 274 274 273 273 272 272 271 271 271
14 11 10 9 6 2 358 358 356 353 350 349 345 341 338 338 339 339 338 339 341 342 340 339 341 342 342 343 342 340 338 335 332 329 326 322 319 317 315 314 313 312 311 310 309 308 307 306 304 303 302 300 299 297 295 294 293 292 290 289 288 287 286 285 284 283 283 282 281 280 280 279 278 277 277 276 276 275 275 274 274 273 273 273 272 272
18 16 14 13 8 1 359 358 355 352 350 347 343 341 341 342 342 340 339 339 339 339 338 337 340 341 342 343 342 341 340 338 334 331 327 324 321 319 318 316 315 315 314 313 313 313 312 310 309 307 306 304 301 299 298 296 294 293 291 290 289 288 286 285 284 283 283 282 281 281 280 280 279 278 278 277 277 277 276 276 276 275 275 274 274 274
16 15 12 9 3 358 358 356 353 353 352 349 347 346 347 347 344 343 341 339 338 338 337 337 339 340 340 342 342 343 342 339 336 332 329 326 323 321 320 318 317 317 317 317 317 317 315 314 312 311 309 307 305 303 301 299 297 296 294 293 291 290 288 287 286 284 283 282 282 281 280 280 279 279 278 278 277 277 276 276 276 276 275 275 275 274
11 8 6 3 359 357 357 356 354 353 352 350 350 349 348 347 346 346 344 341 338 338 338 337 338 338 338 340 342 343 344 341 338 335 331 328 326 323 321 320 319 319 319 319 319 318 317 316 315 314 312 311 309 307 306 304 303 301 299 297 296 294 292 291 289 288 286 285 284 283 282 281 280 280 279 279 278 278 277 277 276 276 276 275 275 275
7 4 0 357 355 355 355 353 349 348 348 348 348 347 346 346 347 348 345 342 340 339 338 337 338 336 336 339 341 342 344 343 341 338 334 331 327 324 322 321 320 319 319 319 318 318 318 318 318 318 316 315 313 311 310 309 307 306 304 302 301 299 297 295 293 292 290 289 287 286 284 283 282 282 281 280 280 279 279 279 278 278 277 277 277 276
4 1 357 354 352 352 351 347 344 343 343 343 343 342 343 345 346 346 345 343 342 341 338 338 338 336 334 336 339 341 343 344 342 340 337 334 329 326 323 322 320 319 318 318 319 320 320 321 322 321 321 319 317 316 315 313 312 310 309 307 305 303 301 298 296 295 293 292 290 288 287 285 284 283 283 282 281 281 280 280 279 279 279 278 278 277
3 0 357 354 352 350 348 345 342 341 338 338 339 339 340 342 342 341 342 342 342 341 339 339 340 336 333 335 336 339 341 342 342 342 340 337 333 330 327 324 322 321 320 321 321 321 323 324 324 324 324 323 321 320 319 317 316 314 313 311 310 307 305 302 299 297 295 294 293 291 289 288 287 286 285 285 284 283 283 282 282 281 281 280 280 279
4 1 357 356 354 352 349 345 343 341 337 335 335 335 335 337 337 337 339 339 340 340 338 338 341 337 333 334 335 337 339 340 341 342 341 339 336 333 330 327 325 323 323 323 323 323 324 325 326 326 326 325 324 323 321 320 318 317 316 315 313 311 309 306 303 300 298 296 295 294 293 291 290 289 288 287 286 286 285 284 284 283 283 282 282 281
3 1 358 356 355 353 351 347 344 342 339 335 332 332 332 333 334 335 336 337 338 338 336 336 341 339 334 334 335 335 337 338 339 341 341 340 338 336 333 330 327 325 324 324 324 325 326 326 327 327 327 327 326 324 323 321 320 319 319 319 318 316 313 309 306 303 300 298 297 296 295 294 293 291 290 289 289 288 287 286 286 285 284 284 284 283
360 358 357 355 353 352 350 347 345 344 342 337 333 332 331 330 331 331 333 334 336 337 335 333 338 340 335 333 334 334 335 336 337 339 339 339 338 336 334 331 328 327 326 326 326 326 326 326 327 327 327 327 327 325 324 323 322 321 321 322 322 320 317 314 310 307 303 301 299 298 297 296 295 294 293 292 291 290 289 289 288 288 287 287 286 286
356 355 354 353 352 350 348 347 346 344 343 340 335 332 331 329 329 329 330 332 333 335 333 332 335 338 335 332 333 333 334 334 336 337 337 337 337 335 334 332 330 329 328 328 327 326 326 326 326 327 327 328 327 326 325 324 323 322 323 324 325 324 322 319 315 311 308 305 302 301 299 298 297 295 295 294 293 292 292 291 290 290 289 288 288 287
352 351 351 350 349 348 347 346 346 343 342 341 337 333 331 329 329 328 328 330 331 333 334 332 335 338 335 332 333 333 333 333 334 336 335 335 335 335 334 333 332 331 330 328 326 326 326 326 326 327 328 328 328 327 325 325 324 323 324 325 327 326 325 322 318 315 311 307 305 303 301 300 299 297 296 295 295 294 293 293 292 291 290 289 289 288
349 348 347 347 347 346 346 346 345 343 341 340 338 334 332 330 329 328 328 328 328 331 334 333 334 338 334 330 332 333 331 332 333 334 334 334 335 336 335 334 333 331 329 327 326 326 326 327 327 328 328 328 328 327 326 325 325 325 325 326 328 328 326 324 320 317 313 309 306 304 302 301 300 299 298 297 296 295 294 294 293 292 291 291 290 290
347 345 344 344 344 344 345 344 343 342 341 339 337 335 333 332 330 329 327 326 326 330 334 331 332 336 333 329 331 332 330 331 332 332 333 334 334 335 335 334 333 331 329 328 327 327 327 327 328 328 328 328 328 328 327 327 326 326 326 327 328 329 327 325 322 318 314 311 308 305 303 302 301 300 299 299 298 297 296 295 295 294 293 293 292 291
344 344 342 342 341 342 343 342 341 341 339 337 335 335 335 333 331 329 326 326 326 329 332 329 329 333 333 330 331 331 329 330 331 332 332 333 334 334 334 333 332 331 330 328 327 327 327 327 327 327 328 328 329 329 328 328 327 327 327 328 329 329 328 325 322 319 316 312 309 307 305 304 303 302 301 300 300 299 298 297 297 296 296 295 294 294
343 342 341 340 339 339 340 340 340 339 338 336 335 336 336 333 331 329 327 327 327 327 329 328 328 331 332 332 333 332 330 331 332 332 332 333 333 334 333 332 332 331 330 328 327 327 327 327 327 327 327 328 329 329 329 328 328 327 327 328 329 330 328 326 323 320 317 314 311 309 307 307 306 305 304 303 302 301 300 300 299 299 298 298 297 296
341 341 340 340 339 338 338 339 338 338 338 337 336 336 336 333 332 332 331 329 326 325 328 328 328 330 331 333 334 333 332 332 332 332 333 333 334 334 333 333 332 332 330 328 327 327 326 326 326 326 327 328 329 329 329 329 328 328 328 329 330 330 329 326 323 321 318 315 313 311 310 310 309 308 307 306 305 304 303 302 302 301 301 301 300 299
340 340 340 341 340 337 337 338 338 338 339 337 335 335 335 334 333 334 334 328 324 325 328 329 329 329 330 333 335 334 333 333 333 333 333 334 335 334 334 333 333 332 331 329 328 327 326 326 326 326 326 327 328 329 329 329 329 328 329 329 330 330 329 327 324 321 319 317 315 313 313 312 311 310 309 308 307 306 306 306 305 305 304 304 302 301
340 340 340 341 341 338 338 339 338 339 340 337 334 335 335 335 336 335 333 327 324 327 330 329 329 330 330 332 335 335 334 333 333 333 334 335 336 335 334 334 333 333 332 330 328 327 326 326 325 325 326 327 328 329 329 329 329 329 329 329 330 330 329 327 325 322 320 318 316 315 315 314 313 312 311 310 309 309 309 309 308 308 307 306 304 303
341 341 340 341 342 340 338 340 339 339 340 337 334 336 336 336 335 334 333 329 327 329 331 330 331 331 331 332 334 335 334 333 334 334 335 336 336 335 334 334 333 333 332 330 328 327 326 326 325 325 326 327 328 328 329 329 329 329 329 330 330 330 329 327 325 323 321 319 318 317 316 316 315 314 313 312 312 312 312 311 311 310 309 307 305 305
342 342 341 341 343 341 339 340 340 340 340 337 336 337 336 335 334 335 336 332 328 330 331 331 332 332 332 332 333 335 335 334 334 334 334 336 336 335 335 335 334 333 332 330 328 327 326 326 325 325 326 327 327 328 328 329 329 329 329 329 330 330 329 328 326 324 322 320 319 318 318 317 317 316 315 314 314 314 314 314 313 312 310 309 307 307
343 343 342 341 343 343 341 341 341 341 340 338 337 337 336 334 334 336 339 333 329 331 332 332 333 333 333 333 333 334 335 335 335 334 334 336 336 335 336 335 334 333 332 330 329 328 327 327 326 326 326 326 327 327 328 328 329 329 329 329 330 330 329 328 327 325 323 321 320 320 319 319 318 317 316 316 316 316 316 316 315 313 311 310 309 309
344 343 343 341 342 342 342 342 343 344 342 338 337 336 335 335 335 337 340 335 330 332 333 332 333 333 333 333 332 333 335 336 336 334 334 336 336 336 336 336 335 334 333 331 330 329 328 327 326 326 326 326 327 327 328 328 329 329 329 329 330 330 329 328 327 325 324 322 321 320 320 319 319 318 317 317 317 317 317 317 316 314 312 311 311 311
344 343 343 342 341 341 343 343 343 345 343 338 337 337 336 336 336 337 341 338 331 332 333 332 333 333 333 333 333 333 335 337 337 334 334 336 336 336 337 337 336 335 334 333 331 330 329 328 327 327 326 327 327 328 328 329 329 329 329 330 330 330 329 328 327 326 324 323 322 321 320 320 319 319 318 318 318 318 318 318 317 314 312 313 313 312
344 343 343 342 341 340 342 343 342 344 344 340 338 339 338 338 337 337 340 339 333 332 333 332 332 333 333 334 334 334 334 336 336 334 334 335 336 337 338 338 337 336 335 334 332 331 330 329 328 328 328 328 328 329 329 329 329 330 330 330 330 330 329 329 328 327 325 323 322 321 321 320 320 320 319 319 319 319 319 319 317 315 313 314 315 314
344 344 343 342 342 340 341 343 342 343 344 342 340 339 339 338 338 337 339 340 335 332 333 333 332 333 333 334 334 334 333 334 336 335 334 335 336 337 338 338 338 337 336 335 334 333 332 331 330 330 330 329 330 330 330 330 330 330 330 330 330 330 330 329 328 327 325 324 323 322 321 321 321 321 320 320 320 320 320 320 319 316 315 316 317 316
344 345 344 343 342 340 340 341 341 341 342 341 340 339 338 339 338 336 338 339 336 333 333 333 332 332 333 334 334 334 333 334 335 335 335 335 337 338 339 339 339 338 337 336 335 334 333 332 332 331 331 331 331 332 332 331 331 331 331 331 331 330 330 329 328 327 326 324 323 322 322 322 322 322 322 321 321 321 322 322 321 318 317 318 319 317
345 346 345 343 342 341 340 340 340 340 340 340 339 339 339 339 338 336 336 338 336 334 334 333 332 332 332 333 334 334 334 334 335 336 336 336 337 338 339 339 339 339 338 337 336 335 334 333 333 333 332 332 333 333 333 332 332 332 332 331 331 330 330 329 328 327 326 325 324 323 323 323 323 323 323 323 323 323 324 324 322 320 319 320 320 319
346 345 345 344 343 342 341 339 338 340 341 339 339 339 338 338 337 335 335 336 335 333 333 332 331 331 332 333 334 334 335 335 335 336 336 336 337 338 339 340 339 339 338 337 337 336 335 334 334 334 333 334 334 335 334 334 333 333 333 332 331 331 330 329 328 327 327 326 325 324 324 324 324 324 324 324 324 325 325 326 324 321 320 321 322 321
347 345 345 345 343 343 343 339 337 340 341 339 338 339 338 337 336 335 335 335 333 332 332 331 330 330 331 332 333 334 335 335 335 336 336 336 337 338 339 339 339 339 338 338 337 336 336 335 335 335 334 335 336 336 336 336 335 335 334 333 332 331 330 329 329 328 327 327 326 326 325 325 325 325 325 325 325 326 327 327 325 323 321 322 324 323
347 345 346 346 344 343 344 339 337 339 341 339 338 338 338 337 336 335 335 334 332 331 331 330 330 330 331 332 333 333 334 335 335 336 336 336 337 338 339 339 339 339 339 338 337 337 336 336 336 336 336 336 338 338 338 338 337 336 335 334 333 332 331 330 329 329 328 328 327 327 327 327 327 327 326 326 327 327 327 328 326 324 323 323 325 325
349 345 346 347 344 344 344 339 337 339 340 339 338 337 337 337 335 334 334 333 332 331 330 330 329 330 330 331 332 333 333 334 335 335 336 336 337 337 338 339 339 339 339 338 338 337 337 337 337 337 337 338 339 340 340 340 339 338 337 336 335 334 332 331 330 329 329 329 328 328 328 328 328 328 327 327 328 328 328 329 328 326 324 324 325 326
349 347 347 347 345 345 344 339 338 340 340 338 338 338 338 337 336 335 335 334 332 331 330 330 329 329 329 330 331 332 333 333 334 335 335 336 336 337 338 339 339 339 339 339 338 338 338 337 337 337 338 339 340 341 342 342 341 340 338 337 336 335 334 332 331 330 330 330 329 329 329 329 329 329 329 328 328 328 329 329 328 326 324 324 325 327
349 347 348 348 346 346 344 341 340 342 341 338 338 339 340 338 337 336 336 335 334 332 331 330 329 329 329 329 330 331 332 333 334 334 335 335 336 337 338 338 339 339 339 339 339 338 338 338 338 338 338 339 341 342 342 342 342 341 339 338 337 336 335 333 332 331 331 331 330 330 330 330 330 330 330 330 329 329 329 329 328 327 325 325 326 327
350 348 348 349 348 346 345 342 342 343 342 339 338 339 340 339 338 338 338 336 335 334 332 331 329 329 329 329 329 331 332 332 333 334 334 335 336 337 338 339 339 339 339 339 339 339 339 338 338 338 338 339 341 342 342 343 343 342 341 340 338 337 335 334 333 332 332 332 332 331 331 331 331 331 330 330 330 330 329 328 328 328 326 325 326 328
351 349 348 349 349 347 345 344 343 344 343 340 339 340 340 339 338 339 338 337 336 334 333 331 329 329 329 329 329 331 332 332 333 334 334 334 335 337 338 339 339 339 339 340 339 339 339 338 338 338 338 339 340 341 342 342 342 342 341 341 339 338 336 335 334 333 333 333 333 332 331 331 331 331 331 331 331 330 329 328 328 328 327 326 326 327
352 350 348 349 350 348 346 344 344 345 345 342 340 340 340 339 339 339 339 338 336 335 333 332 330 329 329 329 329 331 331 332 332 333 334 334 335 337 338 339 339 339 340 340 340 340 339 339 338 338 338 338 339 340 341 342 342 342 342 341 340 339 338 337 335 334 334 334 334 333 332 332 332 332 332 332 332 331 329 327 327 328 328 327 326 327
353 351 349 349 350 349 347 346 345 345 345 343 342 341 340 339 340 340 339 338 337 335 333 332 330 329 330 329 330 330 331 332 332 333 334 334 335 337 338 339 339 339 340 340 340 340 340 339 339 338 338 338 339 340 340 341 342 342 342 342 341 340 339 338 337 335 335 335 334 333 332 332 332 332 332 332 333 332 330 328 326 327 328 328 327 327
354 353 351 349 349 349 347 347 346 345 344 344 343 342 341 340 340 340 339 338 336 335 334 332 330 330 330 329 330 330 331 332 332 333 333 334 335 336 338 339 339 340 340 340 340 340 340 339 339 339 339 338 339 339 340 341 342 342 343 343 342 341 340 339 338 336 336 335 335 333 333 332 333 333 333 333 333 333 332 330 327 326 328 329 329 328